This demonstration page uses our WeatherBlox Daily Observations layout. Learn more.

Left ArrowRight Arrow

39.08367, -84.50855

Hourly Observations for November 20, 2015

Temp ( °F °C ) Dew Point ( °F °C ) Humidity (%) Winds ( mph kmh ) Pressure ( in mb ) Visibility ( mi km ) Precip ( " mm )
12:53 am 00:53 Clear 41 5 18 -7.8 39 39 VRB 3 6 30.30 1026 10 16 0.00 0.00
2:53 am 02:53 Clear 30 -1.1 25 -3.9 82 82 SW 3 6 30.32 1027 10 16 0.00 0.00
3:53 am 03:53 Clear 29 -1.7 25 -3.9 85 85 SSW 3 6 30.33 1027 10 16 0.00 0.00
4:53 am 04:53 Clear 29 -1.7 26 -3.3 89 89 Calm 30.35 1028 10 16 0.00 0.00
5:53 am 05:53 Clear 29 -1.7 26 -3.3 89 89 Calm 30.36 1028 10 16 0.00 0.00
6:53 am 06:53 Clear 28 -2.2 27 -2.8 96 96 Calm 30.37 1028 10 16 0.00 0.00
7:53 am 07:53 Sunny 28 -2.2 26 -3.3 92 92 Calm 30.39 1029 10 16 0.00 0.00
8:53 am 08:53 Sunny 34 1.1 30 -1.1 85 85 Calm 30.40 1029 10 16 0.00 0.00
9:53 am 09:53 Sunny 39 3.9 30 -1.1 70 70 S 5 7 30.40 1029 10 16 0.00 0.00
10:53 am 10:53 Sunny 45 7.2 25 -3.9 46 46 S 6 9 30.39 1029 10 16 0.00 0.00
11:53 am 11:53 Sunny 48 8.9 21 -6.1 34 34 VRB 3 6 30.37 1029 10 16 0.00 0.00
12:53 pm 12:53 Sunny 50 10 18 -7.8 28 28 WSW 6 9 30.33 1027 10 16 0.00 0.00
1:53 pm 13:53 Sunny 50 10 19 -7.2 29 29 W 8 13 30.32 1027 10 16 0.00 0.00
2:53 pm 14:53 Sunny 51 10.6 19 -7.2 28 28 WSW 7 11 30.30 1026 10 16 0.00 0.00
3:53 pm 15:53 Sunny 52 11.1 18 -7.8 26 26 NNW 3 6 30.30 1026 10 16 0.00 0.00
4:53 pm 16:53 Sunny 48 8.9 21 -6.1 34 34 WNW 3 6 30.29 1026 10 16 0.00 0.00
5:53 pm 17:53 Clear 45 7.2 26 -3.3 48 48 Calm 30.29 1026 10 16 0.00 0.00
6:53 pm 18:53 Clear 43 6.1 28 -2.2 56 56 Calm 30.28 1026 10 16 0.00 0.00
7:53 pm 19:53 Clear 40 4.4 31 -0.6 70 70 Calm 30.28 1025 10 16 0.00 0.00
8:53 pm 20:53 Clear 39 3.9 30 -1.1 70 70 Calm 30.25 1025 10 16 0.00 0.00
9:53 pm 21:53 Clear 36 2.2 30 -1.1 79 79 ESE 3 6 30.23 1024 10 16 0.00 0.00
10:53 pm 22:53 Clear 37 2.8 31 -0.6 79 79 Calm 30.20 1023 10 16 0.00 0.00
11:53 pm 23:53 Clear 39 3.9 31 -0.6 73 73 Calm 30.21 1023 10 16 0.00 0.00

Powered by AerisWeather